Weather History for Ponca City, OK

Change the Weather History Date:

Wednesday, February 20, 2013

  Actual Average Record
Temperature  
Mean Temperature 34 °F -  
Max Temperature 37 °F 56 °F 75 °F (2011)
Min Temperature 30 °F 27 °F 15 °F (1955)
Degree Days  
Heating Degree Days 32    
Moisture  
Dew Point 27 °F    
Average Humidity 80    
Maximum Humidity 93    
Minimum Humidity 42    
Precipitation  
Precipitation 0.09 in - - ()
Sea Level Pressure  
Sea Level Pressure 30.13 in    
Wind  
Wind Speed 14 mph (ESE)    
Max Wind Speed 20 mph    
Max Gust Speed 26 mph    
Visibility 4 miles    
Events Fog , Rain , Snow    
Averages and records for this station are not official NWS values.
T = Trace of Precipitation, MM = Missing Value Source: NWS Daily Summary

Daily Weather History Graph

Daily Weather History Graph

Search for Another Location

Airport:

Trip Planner

Search our weather history database for the weather conditions in past years. The results will help you decide how hot, cold, wet, or windy it might be!

Date:

Astronomy

Feb. 20, 2013 Rise Set
Actual Time 7:10 AM CST 6:14 PM CST
Civil Twilight 6:44 AM CST 6:40 PM CST
Nautical Twilight 6:14 AM CST 7:10 PM CST
Astronomical Twilight 5:44 AM CST 7:40 PM CST
Moon 1:41 PM CST (2/20) 3:26 AM CST (2/20)
Length of Visible Light 11h 56m
Length of Day
11h 03m
Waxing Gibbous, 76% of the Moon is Illuminated
Feb 20
Waxing Gibbous
Feb 25
Full
Mar 4
Last Quarter
Mar 11
New
Mar 19
First Quarter

Hourly Weather History & Observations

Time (CST) Temp. Windchill Dew Point Humidity Pressure Visibility Wind Dir Wind Speed Gust Speed Precip Events Conditions
12:53 AM 37.9 °F 29.6 °F 19.0 °F 47% 30.25 in 10.0 mi East 13.8 mph - N/A   Clear
1:53 AM 37.0 °F 28.9 °F 17.1 °F 44% 30.22 in 10.0 mi East 12.7 mph - N/A   Mostly Cloudy
2:53 AM 36.0 °F 27.1 °F 17.1 °F 46% 30.20 in 10.0 mi East 13.8 mph - N/A   Overcast
3:53 AM 35.1 °F 25.5 °F 15.1 °F 44% 30.19 in 10.0 mi East 15.0 mph 23.0 mph N/A   Overcast
4:53 AM 35.1 °F 25.9 °F 16.0 °F 46% 30.21 in 10.0 mi East 13.8 mph - N/A   Overcast
5:53 AM 34.0 °F 25.5 °F 12.9 °F 42% 30.25 in 10.0 mi ESE 11.5 mph - N/A   Overcast
6:53 AM 34.0 °F 26.6 °F 14.0 °F 44% 30.25 in 10.0 mi ESE 9.2 mph - N/A   Overcast
7:16 AM 33.8 °F 24.3 °F 19.4 °F 56% 30.23 in 5.0 mi ESE 13.8 mph 21.9 mph 0.00 in Snow Light Snow
7:31 AM 33.8 °F 26.4 °F 17.6 °F 52% 30.23 in 9.0 mi ESE 9.2 mph - 0.00 in   Overcast
7:53 AM 30.9 °F 19.8 °F 24.1 °F 76% 30.25 in 2.5 mi ESE 16.1 mph 26.5 mph 0.00 in Snow Light Snow
8:00 AM 30.2 °F 17.8 °F 24.8 °F 80% 30.23 in 1.0 mi ESE 19.6 mph - 0.00 in Snow Light Snow
8:07 AM 30.2 °F 18.1 °F 24.8 °F 80% 30.23 in 0.8 mi East 18.4 mph - 0.00 in Snow Light Snow
8:19 AM 30.2 °F 19.8 °F 26.6 °F 86% 30.23 in 0.8 mi East 13.8 mph 23.0 mph 0.00 in Snow Light Snow
8:48 AM 30.2 °F 19.8 °F 26.6 °F 86% 30.21 in 1.0 mi East 13.8 mph - 0.00 in Snow Light Snow
8:53 AM 30.2 °F 19.3 °F 26.6 °F 86% 30.22 in 0.8 mi East 15.0 mph - N/A Snow Light Snow
9:06 AM 30.2 °F 19.8 °F 26.6 °F 86% 30.21 in 1.0 mi East 13.8 mph - 0.00 in Snow Light Snow
9:17 AM 30.2 °F 18.9 °F 26.6 °F 86% 30.21 in 0.8 mi East 16.1 mph - 0.00 in Snow Light Snow
9:41 AM 30.2 °F 19.8 °F 26.6 °F 86% 30.21 in 1.0 mi ESE 13.8 mph - 0.00 in Snow Light Snow
9:53 AM 30.9 °F 20.2 °F 28.0 °F 89% 30.23 in 1.5 mi ESE 15.0 mph - 0.00 in Snow Light Snow
10:22 AM 30.2 °F 19.3 °F 26.6 °F 86% 30.20 in 2.5 mi ESE 15.0 mph 21.9 mph N/A Snow Light Snow
10:36 AM 30.2 °F 19.3 °F 26.6 °F 86% 30.20 in 3.0 mi ESE 15.0 mph - 0.00 in Snow Light Snow
10:53 AM 30.9 °F 21.2 °F 28.0 °F 89% 30.22 in 1.2 mi ESE 12.7 mph - 0.00 in Snow Light Snow
11:12 AM 30.2 °F 19.3 °F 28.4 °F 93% 30.19 in 2.0 mi ESE 15.0 mph - 0.00 in Snow Light Snow
11:53 AM 32.0 °F 20.8 °F 28.9 °F 88% 30.19 in 1.8 mi East 17.3 mph - 0.01 in Snow Light Snow
12:26 PM 32.0 °F 21.6 °F 28.4 °F 87% 30.16 in 0.8 mi ESE 15.0 mph - 0.00 in Snow Light Snow
12:53 PM 32.0 °F 22.1 °F 28.9 °F 88% 30.17 in 0.5 mi East 13.8 mph - 0.01 in Fog , Snow Snow
1:10 PM 32.0 °F 21.2 °F 28.4 °F 87% 30.14 in 1.0 mi East 16.1 mph - 0.00 in Snow Light Snow
1:34 PM 33.8 °F 23.2 °F 30.2 °F 87% 30.11 in 2.0 mi East 17.3 mph - 0.00 in Snow Light Snow
1:46 PM 33.8 °F 23.9 °F 30.2 °F 87% 30.10 in 3.0 mi East 15.0 mph 24.2 mph 0.00 in Snow Light Snow
1:53 PM 33.1 °F 22.2 °F 30.0 °F 89% 30.12 in 4.0 mi East 17.3 mph 25.3 mph 0.00 in Snow Light Snow
2:53 PM 34.0 °F 23.0 °F 30.0 °F 85% 30.08 in 9.0 mi East 18.4 mph 26.5 mph 0.00 in   Overcast
3:53 PM 33.1 °F 22.6 °F 30.0 °F 89% 30.07 in 7.0 mi ESE 16.1 mph - N/A   Overcast
4:53 PM 33.1 °F 23.9 °F 30.0 °F 89% 30.06 in 6.0 mi ESE 12.7 mph 20.7 mph N/A   Overcast
5:29 PM 33.8 °F 24.8 °F 30.2 °F 87% 30.02 in 1.8 mi East 12.7 mph - 0.00 in Snow Light Snow
5:53 PM 33.1 °F 22.6 °F 30.0 °F 89% 30.02 in 1.8 mi East 16.1 mph 21.9 mph 0.00 in Snow Light Snow
6:05 PM 33.8 °F 25.8 °F 30.2 °F 87% 30.01 in 3.0 mi East 10.4 mph 21.9 mph 0.01 in Snow Light Snow
6:53 PM 33.1 °F 23.9 °F 30.0 °F 89% 30.04 in 7.0 mi ESE 12.7 mph - 0.01 in   Overcast
7:42 PM 33.8 °F 24.8 °F 30.2 °F 87% 30.02 in 2.5 mi East 12.7 mph - 0.00 in Snow Light Snow
7:48 PM 33.8 °F 25.8 °F 30.2 °F 87% 30.02 in 4.0 mi ESE 10.4 mph - 0.01 in Rain Light Freezing Rain
7:53 PM 34.0 °F 25.5 °F 30.9 °F 89% 30.05 in 6.0 mi ESE 11.5 mph - 0.01 in Rain Light Freezing Rain
8:09 PM 33.8 °F 25.3 °F 30.2 °F 87% 30.03 in 2.5 mi ESE 11.5 mph - 0.01 in Snow Light Snow
8:17 PM 33.8 °F 23.5 °F 30.2 °F 87% 30.02 in 1.2 mi East 16.1 mph 19.6 mph N/A Snow Light Snow
8:27 PM 33.8 °F 25.3 °F 30.2 °F 87% 30.03 in 3.0 mi East 11.5 mph 19.6 mph 0.02 in Snow Light Snow
8:50 PM 33.8 °F 25.8 °F 30.2 °F 87% 30.02 in 1.8 mi East 10.4 mph 20.7 mph 0.03 in Snow Light Snow
8:53 PM 33.8 °F 25.8 °F 30.2 °F 87% 30.03 in 1.5 mi East 10.4 mph - N/A Snow Light Snow
9:07 PM 33.8 °F 25.8 °F 30.2 °F 87% 30.03 in 3.0 mi ESE 10.4 mph 18.4 mph N/A Snow Light Snow
9:27 PM 33.8 °F 25.8 °F 30.2 °F 87% 30.02 in 5.0 mi East 10.4 mph - 0.02 in Rain Light Freezing Rain
9:53 PM 33.1 °F 24.4 °F 30.9 °F 92% 30.03 in 5.0 mi East 11.5 mph - 0.03 in Snow Light Snow
10:17 PM 33.8 °F 24.3 °F 30.2 °F 87% 30.01 in 5.0 mi East 13.8 mph - 0.01 in Rain Light Freezing Rain
10:53 PM 33.1 °F 23.4 °F 30.9 °F 92% 30.01 in 9.0 mi East 13.8 mph - 0.02 in Rain Light Freezing Rain
11:53 PM 32.0 °F 22.5 °F 30.0 °F 92% 29.99 in 4.0 mi East 12.7 mph - 0.00 in   Overcast